Weather History for KRBG - September, 2013

Change the Weather History Date:

Wednesday, September 18, 2013

  Actual Average Record
Temperature  
Mean Temperature 63 °F 64 °F  
Max Temperature 75 °F 78 °F 98 °F (1991)
Min Temperature 50 °F 51 °F 34 °F (1965)
Degree Days  
Heating Degree Days 2 2  
Month to date heating degree days 6 24  
Since 1 July heating degree days 7 45  
Cooling Degree Days 0 2  
Month to date cooling degree days 120 52  
Year to date cooling degree days 822 463  
Growing Degree Days 12 (Base 50)    
Moisture  
Dew Point 49 °F    
Average Humidity 66    
Maximum Humidity 96    
Minimum Humidity 35    
Precipitation  
Precipitation 0.00 in 0.03 in 1.05 in (1966)
Month to date precipitation 0.38 0.47  
Year to date precipitation 8.92 20.12  
Sea Level Pressure  
Sea Level Pressure 30.07 in    
Wind  
Wind Speed 2 mph (NW)    
Max Wind Speed 10 mph    
Max Gust Speed 15 mph    
Visibility 8 miles    
Events      
T = Trace of Precipitation, MM = Missing Value Source: NWS Daily Summary

Daily Weather History Graph

Daily Weather History Graph

Search for Another Location

Airport or City:

Trip Planner

Search our weather history database for the weather conditions in past years. The results will help you decide how hot, cold, wet, or windy it might be!

Date:

Astronomy

Sep. 18, 2013 Rise Set
Actual Time 6:56 AM PDT 7:17 PM PDT
Civil Twilight 6:28 AM PDT 7:45 PM PDT
Nautical Twilight 5:54 AM PDT 8:19 PM PDT
Astronomical Twilight 5:20 AM PDT 8:53 PM PDT
Moon 6:43 PM PDT (9/18) 6:05 AM PDT (9/18)
Length of Visible Light 13h 17m
Length of Day
12h 20m
Waxing Gibbous, 99% of the Moon is Illuminated
Sep 18
Waxing Gibbous
Sep 19
Full
Sep 26
Last Quarter
Oct 4
New
Oct 11
First Quarter

Hourly Weather History & Observations

Time (PDT) Temp. Dew Point Humidity Pressure Visibility Wind Dir Wind Speed Gust Speed Precip Events Conditions
12:53 AM 54.0 °F 50.0 °F 86% 30.08 in 10.0 mi Calm Calm - N/A   Clear
1:53 AM 53.1 °F 50.0 °F 89% 30.09 in 10.0 mi Calm Calm - N/A   Clear
2:53 AM 52.0 °F 48.9 °F 89% 30.10 in 10.0 mi Calm Calm - N/A   Clear
3:53 AM 51.1 °F 48.9 °F 92% 30.10 in 10.0 mi Calm Calm - N/A   Scattered Clouds
4:53 AM 52.0 °F 50.0 °F 93% 30.11 in 10.0 mi Calm Calm - N/A   Mostly Cloudy
5:53 AM 50.0 °F 48.0 °F 93% 30.12 in 9.0 mi South 3.5 mph - N/A   Partly Cloudy
6:07 AM 50.0 °F 48.2 °F 94% 30.12 in 2.5 mi Calm Calm - N/A   Scattered Clouds
6:11 AM 50.0 °F 48.2 °F 94% 30.12 in 1.8 mi Calm Calm - N/A   Mostly Cloudy
6:19 AM 50.0 °F 48.2 °F 94% 30.12 in 3.0 mi SSE 4.6 mph - N/A   Mostly Cloudy
6:40 AM 50.0 °F 48.2 °F 94% 30.11 in 7.0 mi Calm Calm - N/A   Overcast
6:53 AM 50.0 °F 48.9 °F 96% 30.12 in 10.0 mi Calm Calm - N/A   Overcast
7:02 AM 50.0 °F 48.2 °F 94% 30.11 in 10.0 mi Calm Calm - N/A   Overcast
7:11 AM 50.0 °F 48.2 °F 94% 30.11 in 10.0 mi Calm Calm - N/A   Overcast
7:32 AM 51.8 °F 50.0 °F 94% 30.12 in 1.8 mi Calm Calm - N/A   Overcast
7:53 AM 51.1 °F 50.0 °F 96% 30.12 in 1.5 mi Calm Calm - N/A   Overcast
8:25 AM 51.8 °F 50.0 °F 94% 30.12 in 2.5 mi Calm Calm - N/A   Overcast
8:53 AM 51.1 °F 50.0 °F 96% 30.12 in 2.0 mi Calm Calm - N/A   Overcast
9:08 AM 51.8 °F 50.0 °F 94% 30.11 in 4.0 mi Calm Calm - N/A   Overcast
9:53 AM 53.1 °F 51.1 °F 93% 30.12 in 6.0 mi Calm Calm - N/A   Overcast
10:10 AM 53.6 °F 51.8 °F 94% 30.11 in 9.0 mi Calm Calm - N/A   Overcast
10:48 AM 57.2 °F 51.8 °F 82% 30.11 in 10.0 mi Calm Calm - N/A   Scattered Clouds
10:53 AM 57.9 °F 51.1 °F 78% 30.11 in 10.0 mi SW 3.5 mph - N/A   Partly Cloudy
11:53 AM 64.9 °F 52.0 °F 63% 30.09 in 10.0 mi Calm Calm - N/A   Clear
12:53 PM 66.9 °F 50.0 °F 54% 30.06 in 10.0 mi SE 5.8 mph - N/A   Clear
1:53 PM 72.0 °F 46.9 °F 41% 30.04 in 10.0 mi Calm Calm - N/A   Partly Cloudy
2:53 PM 73.0 °F 46.9 °F 39% 30.01 in 10.0 mi Variable 6.9 mph - N/A   Clear
3:53 PM 72.0 °F 46.0 °F 40% 29.99 in 10.0 mi Calm Calm - N/A   Clear
4:53 PM 75.0 °F 46.0 °F 36% 29.99 in 10.0 mi NNW 9.2 mph - N/A   Clear
5:53 PM 73.9 °F 45.0 °F 35% 29.98 in 10.0 mi NNW 6.9 mph - N/A   Clear
6:53 PM 72.0 °F 46.0 °F 40% 29.99 in 10.0 mi NNW 4.6 mph - N/A   Clear
7:53 PM 68.0 °F 46.9 °F 47% 29.98 in 10.0 mi North 4.6 mph - N/A   Clear
8:53 PM 64.0 °F 46.9 °F 54% 30.00 in 10.0 mi Calm Calm - N/A   Clear
9:53 PM 61.0 °F 48.0 °F 62% 30.01 in 10.0 mi Calm Calm - N/A   Clear
10:53 PM 57.9 °F 48.0 °F 70% 30.00 in 10.0 mi Calm Calm - N/A   Clear
11:53 PM 55.9 °F 48.0 °F 75% 30.00 in 10.0 mi Calm Calm - N/A   Clear